Location: Ballingbuur
(53.0000°N, 5.7667°E)
Time: 07:00:22
(UTC+00:00)

SKYMED 2 - Pass Details

Date: 29 November 2020
Orbit: 621 x 623 km, 97.9° (Epoch: 23 January)

Event Time Altitude Azimuth Distance (km) Brightness Sun altitude
Rises 04:16:32 0° 154° (SSE) 2,893 7.3 -27.3°
Reaches altitude 10° 04:18:43 10° 151° (SSE) 1,991 6.5 -27.0°
Maximum altitude 04:23:00 63° 71° (ENE) 699 3.9 -26.3°
Enters shadow 04:23:18 61° 47° (NE) 711 3.9 -26.3°
